Terminal Aerodrome Forecast
Issued by NWS

Home | Current Version | Previous Version | Text Only | Print | Product List | Glossary On
Versions: 1 2 3 4 5 6 7 8 9 10 11 12 13 14 15 16 17 18 19
000
FTUS45 KGJT 290539
TAFEGE
TAF
KEGE 290539Z 2906/3006 36004KT P6SM VCSH BKN040 OVC050
     FM291400 03004KT P6SM OVC050
     FM292000 34005KT P6SM BKN050
     FM292300 03009KT P6SM BKN060
     FM300200 06004KT P6SM SCT060
      AMD LTD TO CLD VIS AND WIND TIL 291300=

USA.gov is the U.S. government's official web portal to all federal, state and local government web resources and services.